{"data":{"norad_id":56103,"epoch":"2026-09-20T22:22:07.980384Z","epoch_age_seconds":68715,"freshness":"FRESH","line1":"1 56103U 23046L   26263.93203681  .00000746  00000+0  36630-4 0  9999","line2":"2 56103  43.0014 138.7328 0001590 252.9368 107.1309 15.27579919191895","mean_motion":15.27579919,"eccentricity":0.000159,"inclination_deg":43.0014,"raan_deg":138.7328,"arg_perigee_deg":252.9368,"mean_anomaly_deg":107.1309,"bstar":3.663e-5,"rev_number":19189,"period_min":94.266753712151,"perigee_km":481.95840995497,"apogee_km":484.14026721064,"semimajor_km":6861.1863385828,"source":"CELESTRAK","updated_at":"2026-09-21T09:00:33.363670Z"}}